sat.trackr.live / text

‹ back to catalog

STARLINK-36034

NORAD 66609 · 2025-270X

PAYLOAD ACTIVE UNKNOWN

§ Identity

Operator
Country
US
Launch date
2025-11-22
Launch site
AFETR
Launch vehicle
Mass (kg)
RCS (m²)

Purposes: comms

External: N2YO · Heavens-Above · Gunter

§ Orbital elements

Epoch: 2026-09-20T19:36:35.626464Z

Period
94.27 min
Inclination
43.0054°
Eccentricity
0.0003267
Mean motion
15.27591382 rev/d
Perigee alt
480.8 km
Apogee alt
485.3 km
Semi-major
6,861.2 km
B*
4.2900e-4
RAAN
34.5809°
Arg perigee
279.9475°
Mean anomaly
80.1008°
Rev number
4,738

§ Raw data

STARLINK-360341 66609U 25270X   26263.81707901  .00011566  00000+0  42900-3 0  99912 66609  43.0054  34.5809 0003267 279.9475  80.1008 15.27591382 47387

JSON: /api/v1/satellites/66609 · /tle

For live sub-satellite position, see the globe view (requires WebGL).

§ Visibility from observer

Set your observer location to see the next 7 days of passes ≥ 10°. The values pass through the URL so the page stays shareable.

No JS? Fill the form by hand. The geolocation button needs JavaScript.